Showing default

GLOBALSTAR M023, 25621

Orbit data source: Space-Track

GLOBALSTAR M023, 25621 is a payload satellite owned by Globalstar (US) in LEO that was launched on Tue, 09 Feb 1999 UTC via a SOYUZ-U-PVB launch vehicle from the Tyuratam Missile And Space Complex (TTMTR). Payload-class satellites include a variety of spacecraft equipped with specific instruments for various scientific and technological missions. These include communications satellites like Starlink; space stations such as the ISS; scientific satellites like the Hubble; Earth observation satellites from companies like Planet Labs, Umbra, and HawkEye 360; GPS; miniature CubeSats for education and research; and military/defense satellites.

Loading next visibility...
Identifier
25621, 1999-004A
Orbit
LEO
Country
Flag of UnknownUnknown / GLOB
Related business
Manufacturer
SS/Loral
Mission
Non-operational Commercial Communications
Bus & Motor
LS-400, LS-400 AOCS
Mass
450 kg wet, 380 kg dry
Launch date (UTC)
1999-02-09 (27 years ago)
Launch vehicle
SOYUZ-U-PVB
Launch site
Tyuratam Missile And Space Complex (TTMTR)
Object type
Payload
Rocket body
Debris
Shape & HBR
Box + 2 Pan, 6.0 m
Radar Cross Section
5.587 m², Large (>1 m²)

Expand to show TLE details & history
Last TLE update: 14 hours ago

TLE from 14 hours ago
0 GLOBALSTAR M023
1 25621U 99004A   25260.83018491 -.00000047  00000-0  31817-3 0  9992
2 25621  52.0093 131.3413 0010009 335.7538 103.9997 12.62506479227435
Epoch: 2025-09-17T19:55Z
TLE epoch observation values (Epoch: 2025-09-17T19:55:27.976Z)
Latitude
51.01507°
Longitude
-90.73668°
Altitude
1,420.578 km
Speed
7.155 km/s
True Right ascension
13h 40m 31s
True Declination
50° 51' 40"
Sunlit
Object was in daylight at epoch
Visualization orbit readout
Latitude
Unknown
Longitude
Unknown
Altitude
Unknown
Speed
Unknown
Apparent Right ascension
Unknown
Apparent Declination
Unknown
Sunlit
N/A
Visualization observer readout
Local Sidereal Time
02:41:31
Azimuth
Unknown
Elevation
Unknown
Doppler factor
Unknown
Orbital elements
Apogee altitude
1,420.805 km
Perigee altitude
1,405.209 km
Semi-major axis
7,791.144 km
Eccentricity
0.001
Inclination
52.0093°
RAAN
131.3413°
Arg. of periapsis
335.7538°
True anomaly
104.11095°
Mean anomaly
103.9997°
Eccentric anomaly
104.05533°
Mean motion
3.15603 °/min
Orbital period
114.07 mins
BSTAR
0.00031817
Loading maneuver chart data...
Computing Atmospheric mass density...
Loading historical data...
Loading historical data...
Loading historical data...
Loading historical data...
Loading historical data...
Loading historical data...
Loading historical data...
Other satellites on launch #4 in the year 1999 (1999-02-09 UTC)

Documentation

Showing up to 5 results
|